Wetbulb
46.96 44.90 43.62 46.14 49.48 49.58 50.64 49.01 52.27 55.65 56.54 56.44 55.35 56.12 59.49 62.22 62.01 61.84 62.51 63.27 63.95 64.95 66.63 67.32 68.79 69.91 69.00 69.54 70.80 70.71 70.91 72.37 72.89 71.71 71.08 70.47 70.37 70.37 70.51 71.36 71.83 71.38 70.65 71.58
44.05 43.04 47.37 50.61 51.52 50.15 48.50 46.10 48.81 52.54 56.88 56.48 54.65 55.26 59.14 60.58 60.95 61.87 62.04 62.53 63.49 64.48 65.16 66.01 67.31 68.20 68.19 68.57 69.70 69.62 70.35 71.31 72.94 71.75 70.67 70.89 70.31 70.19 70.61 71.04 71.94 72.06 71.31 71.08
41.66 45.21 51.09 52.13 50.87 50.21 46.42 45.97 47.29 50.47 55.00 56.92 56.31 53.05 55.99 60.04 61.28 62.40 63.06 63.72 64.28 64.03 64.16 65.20 66.09 66.87 68.35 68.36 69.14 69.97 69.91 71.45 72.58 71.80 70.98 71.14 71.01 70.29 69.43 69.49 70.76 70.91 71.22 71.23
44.49 48.58 50.53 50.71 50.07 50.14 42.83 49.80 51.11 52.25 51.88 47.51 55.39 45.98 51.86 57.20 58.95 61.15 62.55 63.35 64.13 64.85 65.51 65.65 66.36 67.12 67.99 68.63 70.17 70.34 70.41 71.74 72.26 71.91 70.70 69.85 69.20 67.17 65.60 66.54 68.61 68.04 67.29 66.42
43.86 47.11 47.09 48.39 50.76 51.19 49.33 50.72 49.25 51.30 50.52 48.65 49.58 46.54 49.85 55.90 54.65 58.55 61.46 62.98 64.74 65.74 65.77 65.51 66.58 67.60 68.97 69.68 70.51 70.83 71.25 71.77 72.23 72.00 71.93 70.33 66.43 63.94 63.58 64.75 66.08 63.95 63.80 64.70
46.27 49.90 49.24 49.13 51.39 52.13 52.66 48.28 45.41 44.76 44.94 42.09 49.25 46.66 45.54 52.53 56.28 58.70 60.54 62.58 65.00 65.32 66.71 66.77 67.60 68.34 68.59 70.30 71.33 71.87 71.35 71.96 72.14 72.10 71.70 68.91 64.35 62.41 63.44 62.91 62.40 60.61 60.27 61.62
45.45 46.88 48.59 51.53 47.67 49.26 47.41 42.17 36.94 37.84 39.43 40.01 45.64 45.87 48.18 54.67 59.52 60.23 60.08 61.13 64.32 65.58 66.50 66.74 67.14 67.30 68.03 69.69 71.11 72.13 71.80 71.44 71.60 71.09 69.09 66.55 62.37 62.63 63.38 62.34 60.94 61.05 61.32 62.26
39.35 40.18 46.97 49.37 48.49 46.11 44.56 43.15 37.93 33.41 34.58 40.32 43.55 43.90 50.55 56.12 59.81 61.47 61.72 61.67 64.02 64.74 65.69 67.11 67.84 67.81 68.27 70.16 70.94 71.83 71.83 71.26 69.26 67.68 65.23 61.78 61.88 61.44 61.89 61.50 61.22 60.05 60.85 61.89
38.02 40.23 48.00 50.00 50.10 49.49 45.33 41.01 44.61 39.00 37.90 37.50 39.65 43.93 50.34 54.91 55.75 59.40 58.82 59.57 61.87 64.16 64.67 66.95 68.10 67.92 68.67 69.97 70.77 71.53 71.86 71.51 68.48 65.60 63.56 61.45 62.24 61.48 61.01 61.88 61.80 58.84 59.58 62.20
43.31 38.81 45.31 49.63 49.69 49.02 48.25 47.32 40.78 38.38 34.90 33.95 38.87 41.06 43.43 50.46 52.74 56.26 57.36 57.63 60.93 63.91 64.31 65.92 67.80 67.19 69.16 70.54 71.29 71.70 72.10 71.37 68.89 65.39 63.80 63.24 62.97 62.76 63.10 62.89 61.03 59.99 60.94 61.51
43.29 40.99 42.48 46.15 44.67 45.05 45.25 42.35 41.00 41.38 38.73 36.29 35.63 39.65 47.66 51.02 54.09 55.02 57.22 59.02 60.53 62.23 63.47 64.86 66.42 67.18 68.28 70.29 70.92 71.05 71.05 70.56 68.71 66.06 64.38 63.28 63.27 63.87 63.32 62.44 61.44 61.23 61.05 60.68
44.49 41.35 40.96 42.46 46.54 48.20 46.59 45.73 44.83 42.35 37.67 36.61 38.51 40.72 50.43 52.92 55.54 56.90 57.53 58.39 58.38 60.99 63.08 64.80 65.86 66.60 66.85 68.07 69.54 70.33 70.56 69.90 68.94 67.13 64.95 64.03 64.31 64.02 62.92 62.02 61.92 61.59 60.90 61.20
44.26 38.79 36.50 39.01 41.55 44.30 44.41 45.61 42.69 41.35 40.08 38.82 39.41 41.50 51.55 53.21 54.57 57.41 57.37 57.74 57.99 59.46 61.20 63.96 64.94 65.52 66.07 67.32 68.65 69.69 70.47 70.05 69.17 67.19 65.78 65.10 64.68 64.42 63.10 63.12 62.37 61.92 61.48 61.33
52.18 38.41 42.91 40.55 41.33 44.46 43.68 46.23 45.73 43.83 39.79 39.01 40.86 43.79 48.44 52.05 53.97 54.57 55.87 57.90 58.84 59.14 60.25 62.15 63.83 64.91 65.84 66.51 68.13 68.96 70.42 70.68 69.60 68.00 66.68 65.36 65.50 65.36 64.87 64.27 63.04 61.88 61.28 60.25
47.26 41.48 40.65 45.67 46.22 46.28 46.41 46.48 46.47 44.49 44.73 44.11 44.36 45.39 49.79 52.39 53.61 55.17 56.44 56.15 56.85 58.16 58.71 60.28 62.14 63.31 64.44 65.10 67.12 68.70 70.11 70.58 69.80 68.66 67.45 66.02 65.48 65.13 64.73 63.99 63.03 62.15 61.75 61.97
43.90 41.33 43.10 41.80 45.49 46.24 45.54 47.77 48.58 48.86 45.31 45.10 44.97 45.25 50.58 55.08 54.00 54.32 55.95 56.26 56.55 57.27 59.01 59.58 61.72 62.82 63.02 64.44 66.39 68.02 69.41 70.19 70.02 68.94 68.01 66.49 64.59 63.83 63.19 63.16 62.64 61.64 62.62 61.80
41.56 44.33 39.54 41.78 43.74 46.07 42.20 46.32 48.07 48.99 49.68 48.39 44.56 47.87 50.88 51.37 54.34 55.03 55.53 57.00 57.65 58.09 60.21 58.51 59.88 61.00 62.74 64.25 66.66 67.11 68.82 70.08 69.49 69.20 67.73 65.88 65.44 63.84 62.85 63.08 62.03 61.92 62.13 61.48
44.69 41.03 39.49 42.35 42.06 38.74 44.20 50.76 52.11 51.58 53.33 51.89 51.55 49.77 51.62 53.34 56.77 57.04 55.15 56.44 56.13 57.91 59.40 61.73 61.37 61.34 63.87 65.38 66.46 66.98 68.22 68.82 68.57 67.94 66.99 66.41 65.43 64.48 63.38 61.64 61.97 62.57 62.32 61.48
47.57 42.26 40.68 38.72 38.58 44.45 48.38 51.58 50.92 50.82 49.32 53.18 51.48 53.17 54.04 53.98 54.25 52.94 55.26 55.44 56.99 56.77 56.90 58.81 63.15 64.16 63.45 65.39 67.24 66.86 66.67 67.50 67.39 66.24 65.84 66.14 66.01 64.64 63.12 62.89 63.53 63.67 61.74 60.98
47.65 46.52 44.69 39.17 38.42 39.06 47.12 52.59 55.57 52.82 46.56 54.31 54.48 53.18 52.93 53.01 50.91 50.76 55.97 55.78 55.63 55.91 58.34 58.95 60.11 62.92 63.35 63.92 66.73 65.31 64.73 65.50 65.59 66.18 65.98 66.44 66.09 64.88 63.40 63.71 63.77 63.69 62.71 61.89
44.86 44.86 43.34 41.70 40.66 44.04 51.23 53.38 55.12 45.62 45.13 54.21 53.19 52.76 53.48 51.57 51.76 53.64 56.04 56.95 57.66 58.96 60.92 61.05 63.05 65.20 64.73 65.10 64.78 63.84 64.03 64.55 66.03 65.81 65.30 64.84 63.72 63.81 64.11 62.94 62.11 62.29 63.18 61.81
44.18 45.29 45.38 44.41 41.59 40.15 53.90 53.25 49.53 50.68 51.19 52.55 53.71 53.77 53.75 54.69 55.89 56.41 57.20 56.76 57.07 57.17 58.61 60.66 62.21 65.21 64.97 64.60 63.84 61.79 62.63 63.78 64.33 64.72 63.82 60.93 61.66 63.63 62.45 59.68 59.64 60.87 62.18 61.68
45.91 49.48 47.16 46.49 44.12 50.18 52.56 51.92 53.85 53.18 53.58 52.68 54.65 54.68 55.47 56.77 55.58 56.72 56.26 58.35 60.35 60.49 61.11 61.76 61.43 65.44 63.18 63.02 63.23 61.96 62.15 63.81 63.44 63.29 61.48 61.25 62.15 62.51 61.68 60.02 58.73 59.00 60.65 60.49
51.93 53.38 48.14 48.52 48.92 51.42 52.20 52.98 53.47 53.55 53.34 54.21 54.91 54.86 54.94 55.39 60.10 60.10 60.92 61.11 60.51 60.94 60.74 62.22 62.69 61.42 60.57 61.88 62.99 62.65 63.64 63.43 63.37 61.59 60.80 61.17 61.24 60.62 61.97 61.08 60.08 62.02 60.65 59.12
50.61 53.00 49.84 48.89 51.91 52.16 51.15 52.11 53.12 53.02 53.82 54.06 55.04 55.47 55.39 57.17 58.56 61.12 60.97 61.15 61.13 60.51 60.68 62.06 61.08 60.54 60.73 62.55 62.51 62.31 62.13 62.47 61.69 61.32 61.06 60.21 61.41 59.81 60.56 55.53 53.94 57.42 53.48 53.50
47.85 51.15 48.31 46.09 52.18 49.69 49.72 52.01 53.48 51.91 52.01 52.54 52.72 52.37 52.43 53.43 54.07 59.69 60.57 60.78 59.32 58.62 59.70 60.38 59.34 59.59 60.04 60.89 60.60 61.46 61.55 61.13 60.19 59.20 59.77 59.29 59.35 61.52 60.05 53.64 49.37 46.22 46.43 43.51
MSLP
1002.03 1002.51 1002.61 1002.99 1003.11 1003.69 1004.33 1005.07 1004.81 1004.39 1004.75 1005.79 1006.52 1007.29 1007.88 1008.62 1009.30 1009.62 1009.88 1010.13 1010.44 1010.61 1010.63 1011.04 1011.32 1011.82 1012.44 1012.81 1013.23 1013.68 1014.22 1014.50 1014.88 1015.28 1015.65 1015.94 1016.04 1016.07 1016.17 1016.11 1016.20 1016.41 1016.51 1016.67
1002.48 1002.21 1001.99 1002.19 1002.60 1003.23 1003.87 1004.44 1004.81 1004.80 1004.79 1005.73 1007.01 1007.49 1007.79 1008.10 1008.12 1008.13 1008.62 1009.20 1009.49 1010.00 1010.44 1010.72 1011.12 1011.59 1012.08 1012.49 1012.97 1013.48 1013.87 1014.23 1014.44 1014.64 1015.12 1015.49 1015.82 1015.93 1015.86 1015.88 1016.06 1016.16 1016.36 1016.56
1002.05 1001.65 1001.56 1001.89 1002.15 1002.74 1003.52 1003.71 1003.87 1004.43 1005.41 1006.18 1007.20 1008.46 1008.47 1008.19 1008.14 1008.24 1008.15 1008.24 1008.90 1009.11 1009.75 1010.21 1010.59 1011.00 1011.58 1012.20 1012.57 1013.00 1013.31 1013.63 1013.97 1014.34 1014.88 1015.44 1015.83 1015.99 1016.08 1016.17 1016.27 1016.25 1016.29 1016.45
1001.84 1000.97 1001.21 1001.36 1001.53 1001.92 1002.57 1002.63 1003.18 1004.48 1005.74 1006.35 1006.53 1008.07 1007.98 1007.74 1007.86 1007.76 1007.69 1007.72 1007.82 1008.26 1008.84 1009.34 1009.98 1010.59 1011.03 1011.50 1012.02 1012.46 1012.89 1013.20 1013.58 1014.05 1014.54 1015.02 1015.50 1016.06 1016.05 1016.05 1016.09 1016.25 1016.25 1016.47
1000.94 1000.44 1000.37 1000.69 1000.71 1001.37 1001.77 1002.11 1003.05 1004.32 1005.44 1006.49 1007.21 1007.62 1006.78 1007.09 1007.36 1006.50 1006.25 1006.52 1007.11 1007.58 1008.09 1008.58 1009.07 1009.75 1010.31 1010.95 1011.53 1012.00 1012.54 1012.99 1013.28 1013.81 1014.22 1014.71 1015.31 1015.75 1015.75 1016.03 1016.24 1016.39 1016.48 1016.56
1000.46 999.98 999.95 999.82 999.93 1000.74 1000.91 1002.30 1003.65 1005.03 1006.13 1006.87 1006.37 1006.72 1006.43 1005.90 1004.65 1004.25 1005.34 1005.65 1006.09 1006.65 1007.37 1008.04 1008.70 1009.43 1009.99 1010.58 1011.18 1011.68 1012.27 1012.64 1013.05 1013.43 1013.93 1014.40 1015.03 1015.44 1015.89 1016.21 1016.55 1016.59 1016.52 1016.57
1000.25 999.93 999.55 999.37 999.85 1000.62 1001.48 1003.35 1005.00 1006.08 1006.85 1006.91 1005.63 1006.37 1004.21 1003.29 1002.56 1002.42 1003.15 1004.13 1004.77 1005.71 1006.73 1007.48 1008.14 1008.82 1009.53 1010.01 1010.36 1010.89 1011.45 1012.06 1012.51 1013.03 1013.50 1013.98 1014.42 1014.96 1015.52 1015.96 1016.31 1016.66 1016.71 1016.70
1000.67 1000.12 999.24 999.04 999.42 1000.24 1001.50 1002.80 1004.75 1005.79 1006.95 1006.50 1005.88 1005.12 1002.57 1001.39 1001.34 1001.64 1002.57 1002.99 1003.93 1004.79 1005.56 1006.28 1006.92 1007.66 1008.35 1008.92 1009.40 1009.93 1010.73 1011.37 1012.03 1012.65 1013.11 1013.55 1013.93 1014.55 1015.12 1015.52 1016.03 1016.26 1016.37 1016.25
1000.70 999.95 999.06 998.77 999.02 999.74 1000.90 1002.10 1002.83 1004.68 1006.25 1006.14 1005.10 1003.76 1001.93 1000.90 1001.03 1001.33 1001.71 1002.76 1003.24 1003.72 1004.60 1005.31 1006.21 1006.96 1007.60 1008.19 1008.51 1008.84 1009.69 1010.51 1011.29 1011.99 1012.66 1013.20 1013.64 1014.31 1014.75 1015.22 1015.41 1015.78 1015.98 1016.10
999.68 999.97 998.90 998.50 998.68 998.90 999.39 1000.83 1002.83 1004.29 1005.31 1005.72 1004.94 1003.46 1002.04 1001.47 1000.83 1001.20 1001.75 1001.85 1002.16 1002.99 1003.94 1004.89 1005.60 1006.25 1006.62 1006.88 1007.43 1008.22 1008.90 1009.56 1010.30 1011.09 1011.83 1012.52 1013.12 1013.61 1014.19 1014.71 1015.07 1015.31 1015.45 1015.79
999.22 999.67 999.14 998.61 998.28 998.43 999.60 1000.26 1002.00 1003.24 1004.04 1004.75 1004.51 1002.77 1000.74 1000.16 1000.07 1000.65 1000.69 1000.69 1001.50 1002.32 1003.16 1003.91 1004.44 1004.91 1005.26 1005.70 1006.80 1007.42 1008.45 1009.17 1009.85 1010.48 1011.21 1011.97 1012.59 1013.19 1013.87 1014.23 1014.61 1014.85 1015.13 1015.43
998.24 998.96 999.43 998.37 997.78 997.63 998.16 999.21 1000.44 1002.20 1003.79 1004.03 1003.29 1001.30 999.63 999.23 999.60 1000.16 1000.57 1000.86 1001.12 1001.80 1002.53 1003.18 1003.67 1004.08 1004.85 1005.31 1006.09 1006.63 1007.49 1008.25 1008.88 1009.63 1010.56 1011.26 1011.93 1012.80 1013.60 1014.01 1014.17 1014.26 1014.64 1014.87
997.09 998.04 998.86 998.61 998.04 997.71 998.02 998.88 999.84 1000.55 1001.56 1002.56 1002.54 1000.96 999.58 999.25 999.52 1000.00 1000.64 1000.95 1001.07 1001.50 1002.21 1002.63 1003.28 1003.68 1003.91 1004.59 1005.13 1005.59 1006.62 1007.16 1008.13 1008.94 1009.80 1010.76 1011.58 1012.46 1012.91 1013.32 1013.60 1013.81 1014.08 1014.43
995.20 996.77 997.34 997.02 996.90 997.04 997.57 997.95 998.53 999.16 1000.60 1001.33 1000.98 1000.20 999.47 999.49 999.33 999.82 1000.10 1000.85 1000.88 1001.00 1001.43 1002.02 1002.80 1002.97 1003.17 1003.71 1004.46 1005.30 1005.75 1006.54 1007.33 1008.03 1008.88 1009.73 1010.48 1011.20 1011.75 1012.22 1012.76 1013.15 1013.62 1014.06
994.48 996.03 996.60 996.16 996.20 996.51 996.48 996.97 997.52 997.81 998.22 999.29 999.45 999.42 998.74 998.52 998.48 998.80 998.91 999.88 1000.64 1000.93 1001.43 1001.72 1001.86 1002.06 1002.49 1003.15 1003.89 1004.57 1005.21 1006.02 1006.51 1007.18 1007.94 1008.78 1009.88 1010.41 1010.83 1011.11 1011.60 1012.28 1013.02 1013.23
994.53 995.56 995.79 996.13 995.64 995.86 996.13 995.88 996.42 996.64 996.91 997.42 997.71 998.13 997.15 996.95 997.86 998.64 998.83 999.28 999.92 1000.39 1000.59 1000.98 1001.27 1001.68 1002.02 1002.20 1002.71 1003.35 1004.12 1004.90 1005.74 1006.26 1006.83 1008.43 1009.27 1009.97 1010.60 1010.80 1011.05 1011.63 1012.10 1012.72
996.23 995.71 996.38 996.23 995.82 995.78 995.90 995.04 995.27 995.87 996.42 996.16 997.18 996.97 996.85 997.49 997.84 997.89 998.19 998.55 999.05 999.64 1000.24 1000.78 1000.95 1001.29 1001.51 1001.88 1002.41 1002.99 1003.59 1004.60 1005.10 1005.22 1006.97 1007.53 1008.61 1010.11 1009.99 1010.12 1010.87 1010.96 1011.49 1012.19
996.64 996.56 996.69 996.59 996.50 996.14 995.29 994.33 994.24 995.44 996.19 996.42 996.51 996.51 996.50 996.66 996.36 996.51 997.17 997.66 998.64 999.27 999.81 1000.28 1000.71 1001.10 1001.08 1001.30 1001.83 1002.37 1003.30 1004.14 1004.54 1005.39 1006.64 1007.42 1009.02 1009.53 1009.38 1009.70 1009.98 1010.22 1010.98 1011.59
996.75 996.84 997.61 997.88 997.29 996.67 996.10 995.73 995.75 995.16 996.62 996.26 996.42 996.54 996.41 996.86 997.23 997.46 997.36 997.72 998.04 998.62 999.26 999.91 1000.14 1000.44 1000.70 1001.18 1001.33 1002.14 1003.33 1003.79 1004.11 1005.08 1006.21 1007.34 1008.69 1008.14 1008.71 1008.99 1009.26 1009.65 1010.78 1011.54
997.15 997.03 997.61 998.26 998.01 997.79 996.74 996.71 996.08 996.16 997.18 996.89 996.78 997.45 997.56 997.66 998.42 998.53 998.21 998.35 998.76 999.09 999.37 999.70 1000.07 1000.40 1000.83 1001.11 1001.38 1002.48 1003.29 1003.88 1004.15 1004.53 1005.25 1005.68 1006.92 1007.46 1007.80 1008.31 1008.91 1009.58 1010.21 1010.79
998.51 998.26 999.11 999.16 998.78 998.74 998.55 997.73 996.64 997.15 999.04 997.80 998.01 998.44 997.92 999.03 999.84 999.42 998.82 999.48 999.85 999.99 1000.08 1000.14 999.95 1000.27 1000.54 1001.13 1001.31 1002.61 1003.30 1003.44 1003.50 1004.49 1004.85 1005.47 1006.24 1006.87 1007.63 1008.62 1009.67 1010.38 1011.55 1011.57
999.17 999.45 1000.30 1000.33 999.97 1000.02 998.96 998.36 998.86 999.78 999.42 999.72 999.34 998.89 999.07 999.46 999.54 999.71 999.73 999.73 999.84 1000.00 1000.16 1000.03 1000.72 1001.14 1001.31 1001.10 1001.68 1003.00 1003.40 1003.59 1004.31 1005.07 1005.93 1006.42 1006.98 1007.33 1008.02 1008.51 1009.19 1009.19 1010.51 1011.96
999.58 1000.49 1001.75 1001.65 1001.48 1001.07 1000.56 999.74 1000.13 1000.24 999.75 999.99 999.41 999.68 999.65 999.71 999.95 1000.21 1000.48 1000.23 1000.50 1000.77 1000.78 1000.85 1000.93 1001.17 1001.74 1001.37 1001.50 1002.66 1003.31 1003.79 1004.47 1005.26 1006.24 1007.19 1007.98 1008.24 1008.13 1008.64 1008.79 1008.69 1008.34 1010.55
998.97 1000.17 1002.31 1001.58 1002.24 1002.39 1001.50 1000.74 1000.69 1000.76 1000.58 1000.75 1000.71 1000.35 1000.07 1000.23 1000.16 1000.89 1001.01 1001.24 1001.58 1002.02 1001.99 1001.83 1001.69 1002.28 1002.08 1002.26 1002.48 1003.07 1003.57 1004.31 1005.31 1006.30 1006.77 1007.17 1007.45 1008.02 1008.07 1008.78 1009.84 1010.17 1010.35 1010.13
1000.33 999.81 1001.62 1002.82 1003.05 1002.83 1001.94 1002.07 1001.84 1001.90 1001.31 1000.81 1001.13 1001.51 1001.36 1001.05 1000.94 1000.90 1001.19 1001.87 1002.49 1002.70 1001.85 1002.18 1002.36 1003.32 1003.21 1003.31 1003.97 1003.87 1003.88 1004.05 1005.54 1006.89 1007.59 1007.63 1007.70 1008.19 1008.14 1009.80 1010.40 1010.54 1010.45 1010.83
1002.02 1001.64 1002.08 1001.82 1001.58 1002.04 1003.32 1002.87 1002.57 1001.82 1002.74 1002.03 1002.29 1002.92 1002.77 1002.74 1002.65 1002.84 1002.43 1002.90 1003.55 1003.32 1003.79 1003.34 1003.28 1003.32 1004.10 1004.29 1004.56 1004.58 1004.73 1004.10 1005.11 1007.21 1006.93 1006.95 1008.10 1008.00 1007.91 1009.40 1010.41 1010.54 1010.98 1010.95
Wind_Speed
4 4 8 11 8 8 12 4 15 12 7 6 7 11 21 20 16 16 16 15 14 15 14 13 14 14 10 8 9 8 8 7 5 3 3 1 3 2 2 3 4 4 3 5
2 8 10 7 6 8 5 5 7 3 7 7 3 6 18 21 22 21 19 18 18 16 14 13 14 13 12 11 11 9 10 8 8 4 3 3 3 2 2 2 4 4 5 5
7 6 8 7 5 7 6 6 5 7 9 6 9 3 9 13 8 13 15 16 14 18 17 15 14 14 12 11 12 12 11 10 8 7 3 2 3 2 1 1 2 3 6 5
6 9 8 5 5 7 3 9 8 9 16 8 7 6 9 14 15 13 14 14 17 18 18 17 16 13 13 13 11 10 10 10 8 8 6 6 4 4 3 3 3 4 5 5
9 7 7 5 7 7 10 7 8 9 15 7 4 4 7 12 11 20 20 19 18 17 18 19 19 18 16 12 11 10 9 8 7 8 7 6 4 3 2 2 6 4 2 3
11 4 6 9 6 8 3 4 8 6 5 4 13 7 5 13 28 26 17 18 20 19 19 18 17 15 14 11 11 9 9 10 8 9 9 9 8 6 4 3 4 3 1 2
3 8 4 4 5 4 6 7 3 4 2 7 8 4 11 20 25 25 26 21 22 19 19 18 18 16 13 15 15 12 13 13 10 10 9 9 9 8 8 6 5 5 3 2
7 10 9 4 9 9 8 11 9 8 5 7 5 8 12 16 22 21 16 20 19 21 19 22 21 18 19 18 18 17 15 15 10 9 10 8 9 6 5 6 4 4 4 4
7 9 5 6 7 11 5 5 10 7 1 4 5 7 8 7 11 16 19 17 19 22 20 22 20 19 19 18 20 20 18 16 13 13 10 9 8 8 7 7 6 5 5 4
10 2 7 8 5 6 13 8 2 2 6 5 4 4 7 8 8 11 13 18 20 19 17 17 18 19 19 21 19 18 18 18 15 15 12 10 10 8 7 7 7 7 6 6
9 7 9 6 8 10 2 2 4 5 5 8 4 8 9 9 10 18 20 23 17 17 17 18 19 20 22 20 17 17 16 16 15 14 12 10 9 8 7 7 7 7 6 7
11 8 11 13 6 4 8 11 10 8 6 1 5 9 5 9 9 12 13 13 10 12 15 18 19 20 18 19 17 18 15 16 16 14 12 12 9 9 8 7 7 7 8 6
10 5 5 8 4 1 5 7 6 4 5 9 8 8 1 3 6 10 11 10 12 13 12 17 16 18 18 18 18 18 16 18 14 14 14 11 9 9 10 9 8 8 7 7
17 6 16 15 9 6 6 6 7 9 6 7 7 6 4 7 8 8 9 11 14 16 17 16 14 17 18 16 16 16 17 16 15 15 16 15 15 12 12 12 10 8 7 7
15 12 9 20 15 6 6 6 7 8 9 10 9 10 10 13 13 15 14 9 12 13 12 15 17 17 16 14 14 14 15 15 16 17 16 17 13 12 12 11 10 9 8 9
6 7 9 8 12 13 11 14 12 14 6 4 8 7 9 13 5 5 12 12 10 10 16 15 17 14 14 16 16 17 16 17 16 18 18 12 10 10 12 10 10 8 10 8
1 9 7 17 6 7 5 9 17 7 1 8 7 12 6 4 8 12 12 14 14 10 9 10 11 11 10 12 13 15 16 12 15 18 14 18 21 14 14 12 8 9 10 6
3 5 0 12 6 7 5 4 13 11 4 3 4 5 7 10 20 13 6 15 10 9 10 9 8 8 10 9 9 9 10 12 14 14 14 12 9 16 10 8 9 10 5 8
4 4 4 7 6 3 4 4 4 9 4 3 1 5 2 4 5 5 5 4 10 10 8 8 9 8 6 8 9 9 9 12 13 13 14 16 22 14 9 10 11 10 4 4
3 7 5 3 8 6 3 6 12 11 2 7 6 6 4 3 7 3 6 3 1 4 6 7 6 3 4 6 7 9 10 12 14 14 16 17 14 11 9 10 10 4 3 5
5 5 5 3 5 3 4 14 8 10 7 8 4 5 13 9 4 5 8 8 5 4 2 4 2 7 5 6 10 8 10 15 13 7 8 7 6 8 8 8 9 8 4 2
3 2 3 2 5 3 15 5 7 4 5 2 5 7 12 8 7 8 9 8 8 8 9 8 5 4 2 6 8 7 9 6 7 6 5 6 6 6 6 10 5 10 7 10
5 1 6 2 4 4 6 8 5 2 14 5 14 8 8 13 10 10 9 10 9 7 5 6 2 2 4 6 9 10 6 7 8 8 8 7 3 2 2 4 4 1 7 11
3 6 5 5 4 7 6 7 5 5 9 7 7 8 9 8 10 9 8 6 6 7 5 3 5 1 2 3 6 8 9 9 11 9 7 5 4 3 5 6 2 4 7 7
3 5 8 6 3 2 12 10 4 7 10 14 12 10 12 10 9 7 9 10 7 4 4 6 7 4 5 7 9 10 11 14 13 7 3 3 4 4 3 6 2 2 1 3
4 5 8 7 6 11 3 6 6 16 11 12 15 14 12 11 12 8 7 5 5 6 2 5 6 10 6 9 9 9 3 8 13 7 6 5 2 9 4 7 4 10 6 3
Wind_Direction
203 138 193 196 185 146 149 185 205 203 178 127 191 152 175 181 185 189 193 197 203 208 202 191 191 194 185 184 177 178 171 189 165 168 163 162 204 183 201 214 212 185 196 172
78 213 211 184 147 134 141 177 203 321 165 95 170 174 179 184 194 191 188 195 199 203 198 193 192 192 183 182 190 181 191 187 196 174 159 157 160 205 195 170 199 203 178 172
171 230 154 181 158 143 163 174 193 186 152 43 114 11 205 215 214 211 204 203 199 189 191 195 189 188 187 184 185 189 190 194 195 182 131 100 85 65 40 201 160 189 183 181
215 247 166 175 195 135 238 201 213 135 157 195 166 219 222 211 215 217 213 203 200 192 193 186 186 185 186 193 188 189 192 193 195 176 164 160 170 178 223 194 170 175 185 186
234 204 186 173 194 144 230 152 197 171 182 121 218 100 254 164 219 225 213 209 203 195 191 190 187 183 189 179 185 192 187 192 187 182 176 173 169 188 183 136 149 172 200 198
209 216 175 192 216 171 216 102 40 50 122 187 201 161 243 181 213 223 215 209 199 194 196 193 192 185 184 183 183 182 181 199 191 185 184 177 182 169 152 160 168 187 205 280
174 239 216 159 240 131 94 79 334 341 12 214 182 140 235 210 216 215 203 203 199 193 193 192 188 185 181 184 190 189 188 202 195 190 184 183 176 166 173 174 173 171 173 188
169 230 191 196 186 177 180 160 162 189 201 225 138 202 241 210 221 215 209 206 194 196 195 194 191 185 190 192 193 192 193 202 190 185 187 177 166 169 176 176 181 184 185 180
159 255 280 210 188 162 207 161 197 135 355 88 217 276 328 322 220 199 199 189 202 199 194 195 188 190 194 197 200 197 195 197 187 187 180 180 170 166 173 187 170 176 189 192
213 256 215 235 168 233 198 168 101 359 166 232 240 236 219 219 205 203 194 200 204 198 193 188 190 191 198 203 203 201 201 198 186 184 185 180 178 174 178 171 182 185 188 196
156 152 265 156 196 203 124 175 70 129 139 169 221 257 214 224 187 187 197 206 190 187 185 188 194 197 201 203 199 200 199 193 188 185 181 172 172 166 172 173 184 191 186 188
200 171 229 226 226 188 183 200 180 199 242 193 164 260 229 219 192 188 200 196 184 181 183 192 195 200 201 204 199 200 196 192 192 184 173 177 164 167 172 191 197 192 199 191
172 207 201 326 334 93 180 186 172 123 95 185 152 252 271 177 174 188 177 188 184 188 183 195 199 203 206 204 203 199 195 199 185 177 176 171 167 177 186 196 202 201 197 198
154 141 202 221 216 161 185 185 195 153 136 168 211 199 247 216 185 204 200 188 191 198 196 192 198 208 211 208 203 199 202 197 186 180 180 177 183 192 187 193 203 201 199 190
164 189 175 225 213 188 216 207 204 171 175 167 211 190 213 205 200 203 200 181 186 199 205 201 202 207 208 205 199 199 203 194 186 186 183 189 176 193 191 185 196 204 197 202
176 227 154 230 210 196 231 245 209 229 159 122 139 219 215 211 87 127 194 192 195 186 203 203 210 210 206 206 198 198 198 195 187 192 194 161 185 190 197 191 203 193 207 202
167 182 137 225 180 167 219 222 194 156 53 142 148 219 167 162 196 199 205 198 195 189 180 193 201 203 204 207 198 203 201 188 197 200 163 166 182 209 200 192 189 207 212 186
213 190 188 208 112 199 236 307 142 113 114 85 319 260 181 201 203 211 214 176 174 168 179 201 197 209 215 206 194 189 172 182 196 197 176 168 180 212 191 176 197 222 185 197
243 128 108 144 163 184 357 360 289 137 341 23 10 314 320 130 77 19 143 147 167 172 165 178 182 200 199 195 192 175 168 178 194 176 162 158 208 199 174 184 210 223 169 168
177 96 110 157 138 182 217 328 351 296 60 19 59 57 80 48 159 281 355 61 128 154 154 164 190 178 194 223 157 158 167 175 197 192 186 187 194 190 177 190 214 246 154 193
337 8 70 346 103 175 11 326 300 73 236 16 85 111 85 84 169 265 76 58 52 15 325 359 161 187 196 171 135 164 170 194 198 173 162 158 124 110 108 98 81 48 349 257
80 46 17 359 72 51 353 350 95 210 45 53 64 54 84 101 72 47 44 54 49 22 358 26 30 2 343 138 123 146 183 155 136 149 144 101 118 120 131 129 126 64 59 294
64 167 142 202 180 272 283 69 40 27 92 79 76 57 76 57 40 33 19 20 5 354 351 9 258 143 172 156 152 161 143 125 120 112 111 98 120 113 102 145 167 58 156 196
109 111 121 69 345 309 4 46 46 58 73 50 35 54 64 71 58 42 46 10 346 355 5 1 42 288 134 136 104 108 109 99 95 93 103 149 119 204 142 79 215 202 199 200
219 129 131 100 167 184 32 18 356 46 47 57 47 38 29 22 20 10 1 359 347 291 32 45 86 62 53 79 85 102 118 117 107 68 23 341 325 57 100 92 18 204 42 288
343 174 161 185 146 114 349 354 31 63 59 60 60 37 27 46 42 27 21 356 335 352 297 103 125 104 99 102 115 121 184 111 110 143 158 142 216 235 167 142 149 53 32 316